Temp
57 64 68 65 65 68 65 61 58 59 62 58 60 57 60 63 66 68 68 71 74 71 71 78 77 77 78 78 74 77 75 73 73 73 73 72 71 70 71 70 71 70 70 73
55 64 66 61 68 68 61 59 62 60 56 62 63 63 63 63 65 67 67 71 67 67 68 65 70 71 78 77 76 78 76 75 75 73 72 72 70 70 71 70 70 69 71 72
51 58 61 52 58 59 56 58 56 50 54 59 61 63 62 65 68 68 69 68 65 66 66 66 64 68 72 76 78 77 77 77 75 75 72 72 72 71 71 69 68 68 67 67
50 52 43 56 64 63 58 57 58 57 57 59 59 61 63 64 65 66 68 68 68 66 67 70 70 71 73 76 76 76 75 75 74 74 70 69 69 67 70 69 68 67 67 67
50 47 52 58 60 58 59 54 59 59 60 60 61 62 61 65 66 66 68 67 67 67 69 67 68 70 71 71 73 74 74 73 73 71 64 64 64 63 65 66 67 68 68 67
50 49 46 53 60 63 61 49 59 62 59 59 60 52 55 65 68 67 67 65 65 67 68 67 67 69 70 68 67 67 68 72 69 68 65 63 59 62 62 62 61 68 68 68
46 48 49 58 61 62 48 49 58 61 61 59 56 57 60 64 64 64 64 63 63 63 62 63 65 66 67 66 64 65 66 65 64 66 67 64 64 63 61 61 61 67 67 66
42 42 40 60 61 54 55 57 59 61 62 60 59 60 65 64 62 62 61 61 61 60 60 61 63 63 63 65 65 64 63 62 62 63 65 64 63 63 61 62 61 66 66 66
45 45 54 56 56 61 58 58 59 59 62 62 61 63 64 61 60 60 60 59 60 58 58 62 63 62 62 65 64 62 60 60 59 61 63 63 62 61 61 61 64 66 65 65
48 52 53 54 59 64 64 61 65 67 66 65 61 62 61 60 58 58 58 57 57 56 59 58 61 62 60 61 64 60 59 58 59 59 59 59 61 60 60 61 61 65 65 64
49 54 56 57 58 60 64 66 66 67 66 65 63 61 59 58 57 57 56 56 56 55 56 58 59 58 58 60 61 62 59 58 59 59 62 59 59 58 60 63 65 65 66 65
47 55 55 55 59 64 64 66 67 64 62 63 63 60 59 58 58 58 56 56 55 54 55 57 57 58 58 58 59 58 62 62 61 63 62 63 61 59 52 50 51 51 52 60
54 57 57 61 62 65 63 67 67 65 64 61 59 59 58 57 57 58 60 59 55 54 54 54 54 54 57 58 57 57 56 58 58 60 60 61 61 60 57 54 48 46 47 48
58 58 58 60 60 64 65 66 65 65 62 61 60 59 58 58 56 56 55 57 55 54 54 54 54 54 56 59 59 58 58 54 57 57 59 59 61 62 60 59 57 55 44 44
59 61 60 63 63 63 63 63 60 59 60 59 59 58 57 55 54 54 55 55 55 54 54 54 54 54 56 58 59 58 57 57 58 58 58 57 60 61 61 60 58 53 50 47
61 62 61 61 60 60 60 59 56 56 57 56 57 58 57 57 56 56 56 56 53 52 54 54 53 54 55 55 56 58 58 57 56 58 58 59 58 59 60 60 58 57 57 54
58 55 56 57 58 58 57 57 56 56 56 56 58 59 59 58 57 57 57 57 55 54 54 53 54 55 56 55 53 53 55 58 58 57 58 59 59 58 58 60 60 59 59 57
63 63 61 60 59 57 58 58 57 56 55 57 57 56 56 56 57 57 56 56 55 54 54 55 54 55 56 55 54 53 54 54 56 56 59 58 58 59 59 59 60 59 58 55
67 65 63 65 61 58 57 57 56 56 56 56 55 54 55 56 56 56 56 53 52 50 52 54 59 60 55 56 57 53 54 55 55 55 56 56 59 58 58 59 59 59 59 57
62 61 61 60 59 58 55 56 57 56 59 57 56 55 54 54 54 55 54 51 51 52 53 56 59 59 54 54 58 53 54 54 55 54 54 55 56 54 54 53 58 59 59 60
60 60 58 58 56 57 56 57 57 57 58 59 56 53 52 52 53 52 51 50 53 55 57 59 59 58 55 54 53 52 53 54 58 54 54 54 56 57 57 60 58 59 59 59
58 56 56 55 54 54 55 54 55 57 58 57 56 54 52 51 51 51 52 51 53 56 58 57 54 56 54 56 55 57 58 58 58 59 59 58 57 58 59 59 58 58 58 57
56 57 56 54 53 53 54 55 54 55 56 58 54 52 51 50 50 49 49 53 52 54 53 54 54 57 55 52 53 55 55 56 58 58 58 58 58 58 58 57 55 54 52 51
56 56 56 57 55 54 53 55 55 55 55 55 54 53 52 50 51 51 51 52 55 53 52 53 54 55 53 56 55 53 53 54 53 53 54 50 53 54 52 52 52 51 50 51
57 56 56 55 54 53 53 54 54 54 54 53 54 54 54 53 52 52 52 52 54 52 53 53 54 54 51 56 58 58 56 57 59 56 53 53 52 52 52 51 51 51 50 51
55 55 59 60 58 56 57 53 52 52 53 55 52 54 57 59 54 53 52 52 54 53 54 53 54 54 54 54 55 55 54 57 54 53 53 53 52 52 52 52 52 52 52 52
56 53 57 55 56 57 56 53 52 53 53 56 54 54 55 55 53 53 52 54 54 54 53 53 54 54 54 55 55 55 54 54 53 54 54 53 53 53 53 53 53 53 52 52
MSLP
1003.34 1001.52 1000.48 999.84 999.76 999.96 1000.93 1001.99 1002.42 1001.82 1002.44 1003.32 1003.13 1003.27 1003.41 1002.05 1001.88 1002.14 1001.84 1001.10 1001.00 1003.87 1004.87 1003.53 1003.83 1003.71 1004.28 1004.71 1005.66 1005.46 1006.04 1006.20 1006.64 1007.29 1007.76 1008.25 1008.59 1008.80 1009.09 1009.44 1009.72 1009.91 1010.13 1010.45
1003.79 1002.92 1001.34 1000.89 1000.62 1001.09 1002.30 1003.97 1004.00 1004.61 1004.67 1005.22 1004.42 1004.39 1004.62 1004.96 1004.14 1003.73 1003.90 1004.44 1005.03 1005.08 1005.55 1006.69 1005.41 1005.74 1004.08 1004.36 1004.79 1004.63 1005.59 1005.65 1006.29 1007.17 1007.95 1008.42 1008.44 1008.34 1008.69 1009.40 1009.67 1009.55 1009.64 1009.98
1004.29 1003.10 1002.58 1002.41 1002.93 1002.98 1005.36 1005.80 1005.70 1006.30 1007.48 1006.77 1006.51 1007.03 1005.09 1004.92 1005.10 1005.25 1005.55 1006.11 1005.94 1004.82 1007.54 1006.84 1006.39 1005.67 1006.09 1004.06 1004.26 1004.63 1005.32 1005.52 1005.63 1006.26 1006.71 1007.35 1007.81 1008.69 1008.49 1008.42 1008.93 1009.88 1010.03 1009.84
1004.81 1003.84 1004.04 1004.32 1004.21 1003.93 1005.24 1006.14 1006.45 1007.01 1007.34 1007.57 1008.37 1007.77 1008.01 1006.68 1006.38 1005.35 1004.06 1005.65 1007.18 1007.08 1007.90 1007.09 1006.36 1005.76 1006.13 1004.73 1004.64 1004.24 1004.72 1005.37 1005.16 1006.10 1007.38 1008.18 1009.23 1010.82 1009.90 1008.64 1008.30 1008.64 1009.48 1009.74
1005.66 1005.48 1005.60 1005.52 1005.03 1005.57 1005.25 1006.50 1006.59 1005.95 1006.39 1007.10 1007.63 1008.48 1008.25 1007.07 1007.20 1006.97 1006.51 1006.78 1007.79 1007.54 1007.56 1007.97 1006.85 1006.17 1005.31 1004.80 1004.74 1004.47 1004.99 1004.89 1004.71 1006.40 1007.24 1007.90 1008.90 1009.70 1009.41 1011.11 1009.75 1008.30 1008.78 1009.42
1005.74 1006.17 1006.41 1006.15 1006.22 1006.30 1006.27 1006.93 1006.68 1006.43 1006.21 1006.14 1007.40 1008.57 1008.00 1007.68 1007.88 1007.43 1007.34 1007.27 1007.27 1007.31 1006.52 1006.78 1006.91 1005.99 1005.55 1005.47 1005.17 1005.26 1004.94 1004.76 1005.23 1006.17 1006.40 1005.17 1007.72 1009.19 1010.01 1009.18 1010.78 1008.51 1008.41 1008.88
1007.26 1007.15 1007.48 1007.41 1007.04 1006.64 1006.76 1007.53 1006.89 1006.90 1006.46 1007.33 1007.26 1007.62 1006.99 1007.72 1007.79 1006.36 1007.07 1007.80 1007.79 1007.63 1007.20 1006.50 1006.11 1005.70 1005.26 1005.53 1005.41 1005.46 1005.30 1004.90 1005.66 1005.87 1005.40 1004.93 1005.19 1006.36 1007.41 1006.92 1007.43 1008.00 1007.70 1007.97
1009.46 1008.97 1009.01 1007.78 1007.65 1008.01 1007.50 1007.09 1007.36 1007.22 1007.00 1007.42 1007.37 1008.16 1006.63 1006.38 1006.55 1006.31 1006.96 1007.40 1007.99 1007.84 1007.51 1007.53 1007.18 1006.77 1006.45 1006.09 1006.02 1005.82 1005.48 1005.29 1005.30 1005.01 1004.76 1004.35 1004.86 1005.14 1005.07 1003.95 1004.65 1005.41 1006.77 1007.40
1010.90 1010.74 1010.53 1009.58 1008.83 1008.24 1008.27 1008.18 1008.23 1007.52 1007.34 1007.15 1007.87 1008.11 1008.38 1008.24 1008.20 1008.42 1008.88 1009.42 1009.54 1009.28 1008.94 1008.69 1008.00 1007.66 1007.31 1006.70 1005.94 1005.76 1005.97 1005.71 1005.25 1005.08 1005.15 1005.27 1005.26 1005.08 1005.16 1005.60 1006.11 1005.47 1005.80 1006.77
1011.27 1011.23 1010.66 1009.98 1008.81 1008.09 1008.28 1008.66 1007.71 1007.28 1007.35 1007.94 1008.56 1008.65 1009.13 1009.03 1009.52 1010.11 1010.83 1010.90 1010.48 1010.18 1009.83 1008.90 1008.61 1008.40 1007.62 1006.98 1006.17 1005.84 1005.63 1005.37 1005.10 1005.27 1005.30 1005.11 1005.09 1005.11 1005.61 1005.74 1005.67 1006.18 1005.67 1006.13
1011.20 1011.07 1010.41 1010.01 1009.73 1008.90 1009.06 1008.47 1008.14 1008.08 1008.06 1008.32 1008.80 1009.31 1009.51 1009.74 1010.22 1010.75 1011.07 1010.93 1010.65 1010.33 1009.67 1009.07 1008.77 1008.49 1007.67 1006.94 1006.13 1005.74 1005.63 1005.81 1005.84 1005.80 1005.41 1005.40 1005.46 1005.86 1005.83 1005.55 1005.42 1003.88 1004.80 1005.31
1009.78 1009.67 1009.48 1009.78 1008.99 1009.17 1008.77 1008.36 1008.23 1008.49 1008.91 1008.81 1008.95 1009.36 1009.50 1010.15 1010.72 1011.04 1011.25 1011.11 1011.23 1010.93 1010.50 1010.01 1009.72 1008.77 1008.35 1007.96 1007.39 1006.65 1006.00 1005.88 1005.80 1005.41 1005.19 1005.06 1005.24 1005.40 1005.96 1006.08 1005.73 1005.32 1004.66 1004.98
1008.94 1009.16 1009.19 1009.05 1008.89 1008.69 1008.79 1008.15 1008.13 1008.39 1008.67 1009.18 1009.81 1010.21 1010.57 1010.98 1011.20 1011.49 1011.78 1011.64 1011.50 1011.50 1011.24 1010.66 1009.85 1009.44 1009.39 1008.80 1008.58 1007.80 1007.46 1006.87 1006.02 1005.38 1005.47 1004.95 1005.11 1005.88 1006.37 1006.55 1006.22 1005.96 1005.94 1006.51
1008.78 1009.11 1009.30 1008.78 1008.53 1008.14 1008.61 1008.37 1008.56 1009.06 1009.50 1009.64 1009.91 1010.60 1010.83 1011.17 1011.44 1011.70 1011.53 1011.79 1011.38 1011.52 1011.51 1010.77 1010.46 1010.09 1010.05 1009.81 1008.74 1008.23 1008.22 1007.70 1007.00 1006.71 1005.74 1005.33 1005.18 1005.40 1005.80 1006.33 1006.62 1006.93 1007.70 1007.82
1008.27 1008.66 1008.48 1008.03 1008.83 1008.55 1008.55 1008.80 1009.14 1009.55 1009.87 1010.15 1010.53 1010.83 1011.26 1011.57 1011.79 1011.61 1011.53 1011.55 1011.69 1011.69 1011.79 1011.65 1011.29 1010.92 1010.34 1009.46 1008.86 1008.40 1008.22 1008.01 1007.61 1006.86 1006.41 1006.11 1005.79 1005.65 1005.43 1006.15 1007.16 1007.85 1008.26 1009.25
1007.81 1008.16 1008.36 1008.42 1008.87 1009.13 1009.17 1009.60 1010.04 1010.39 1010.45 1010.70 1010.92 1011.18 1011.30 1011.32 1011.32 1011.62 1011.67 1011.48 1011.84 1011.86 1011.93 1011.69 1011.25 1010.59 1009.87 1009.40 1009.03 1008.54 1008.04 1007.73 1007.36 1007.04 1006.47 1006.08 1005.97 1006.04 1005.92 1006.07 1007.09 1006.97 1008.73 1009.51
1007.92 1008.42 1008.61 1008.86 1009.25 1009.56 1009.73 1010.11 1010.43 1010.55 1010.70 1010.75 1011.01 1011.02 1011.18 1011.19 1011.25 1011.47 1011.49 1011.42 1011.54 1011.78 1011.73 1011.26 1010.81 1010.16 1009.55 1009.38 1009.23 1008.78 1008.13 1007.68 1007.35 1007.12 1006.97 1006.59 1006.50 1006.35 1006.37 1006.50 1006.83 1007.79 1008.46 1009.02
1006.61 1007.10 1007.70 1008.35 1009.14 1009.65 1010.10 1010.28 1010.54 1010.74 1010.85 1010.95 1011.04 1011.03 1011.04 1010.87 1010.94 1010.96 1011.27 1011.36 1011.48 1011.70 1011.46 1010.95 1010.32 1009.90 1009.47 1009.15 1008.95 1008.72 1008.27 1007.68 1007.45 1007.02 1006.71 1006.63 1006.75 1007.05 1006.94 1006.87 1007.28 1007.60 1008.55 1009.26
1006.76 1007.39 1008.17 1008.80 1009.33 1009.67 1010.18 1010.35 1010.47 1010.39 1010.40 1010.49 1010.70 1010.80 1010.85 1010.94 1010.93 1010.89 1011.32 1011.68 1011.45 1011.41 1011.20 1010.64 1009.93 1009.57 1009.48 1009.05 1008.47 1008.33 1008.12 1007.60 1007.11 1006.86 1006.40 1006.09 1006.37 1006.62 1006.74 1007.08 1007.41 1007.80 1008.56 1009.12
1008.10 1008.48 1009.01 1009.45 1009.65 1009.76 1010.11 1010.09 1009.88 1009.88 1010.14 1010.29 1010.39 1010.81 1010.96 1011.07 1011.14 1011.19 1011.23 1011.28 1011.05 1010.96 1010.61 1010.22 1009.78 1009.52 1009.51 1009.19 1008.68 1008.42 1008.04 1007.58 1007.41 1007.32 1006.91 1006.96 1007.21 1007.52 1007.57 1007.47 1007.74 1008.19 1009.15 1009.65
1009.14 1009.44 1009.75 1010.01 1010.18 1010.18 1010.29 1010.01 1009.76 1009.74 1009.56 1009.72 1010.29 1010.49 1010.78 1010.85 1010.74 1010.72 1010.83 1011.02 1010.71 1010.36 1010.10 1009.75 1009.60 1009.54 1009.55 1009.23 1009.07 1008.91 1008.45 1007.90 1007.58 1007.69 1007.86 1008.22 1008.20 1008.10 1008.40 1008.59 1008.97 1009.11 1009.86 1010.22
1009.42 1009.77 1010.03 1010.20 1010.14 1010.26 1010.32 1010.26 1010.24 1010.13 1010.08 1010.41 1010.57 1010.72 1010.86 1010.80 1010.75 1010.72 1010.69 1010.72 1010.54 1010.06 1009.89 1009.74 1009.80 1009.68 1009.30 1008.91 1008.97 1008.97 1008.79 1008.43 1008.33 1008.27 1008.34 1008.64 1008.68 1008.60 1008.79 1009.04 1009.29 1009.90 1010.39 1010.80
1009.59 1009.69 1009.90 1010.16 1010.27 1010.32 1010.34 1010.34 1010.32 1010.25 1010.47 1010.53 1010.66 1010.79 1010.93 1010.92 1010.76 1010.91 1010.92 1010.41 1010.37 1010.13 1010.03 1009.84 1009.81 1009.59 1009.30 1009.19 1009.20 1009.23 1009.21 1008.89 1008.88 1008.94 1008.95 1009.11 1009.16 1009.23 1009.39 1009.74 1010.21 1010.81 1011.14 1011.36
1009.50 1009.60 1009.64 1009.79 1009.99 1010.21 1010.30 1010.14 1010.17 1010.16 1010.28 1010.36 1010.37 1010.45 1010.62 1010.76 1010.72 1010.56 1010.32 1010.15 1010.03 1010.06 1010.09 1009.91 1009.79 1009.52 1009.28 1009.23 1009.32 1009.14 1009.18 1009.14 1009.13 1009.19 1009.35 1009.52 1009.80 1009.88 1010.15 1010.46 1010.87 1011.05 1011.35 1011.51
1009.51 1009.56 1009.56 1009.64 1009.93 1010.15 1010.12 1010.26 1010.35 1010.29 1010.27 1010.27 1010.07 1010.07 1010.11 1010.10 1010.48 1010.31 1010.21 1010.32 1010.15 1010.09 1010.07 1009.87 1009.71 1009.46 1009.35 1009.08 1008.83 1008.79 1008.85 1008.77 1008.98 1009.23 1009.51 1009.76 1009.99 1010.24 1010.36 1010.61 1010.97 1011.25 1011.52 1011.76
1009.51 1009.42 1009.37 1009.32 1009.28 1009.42 1009.72 1010.25 1010.43 1010.33 1010.32 1010.27 1010.11 1009.91 1009.82 1009.80 1009.92 1010.06 1010.22 1010.25 1010.06 1009.89 1009.84 1009.68 1009.51 1009.45 1009.37 1009.20 1009.07 1009.11 1009.03 1008.93 1009.04 1009.28 1009.51 1009.82 1010.17 1010.41 1010.60 1010.84 1011.06 1011.34 1011.49 1011.59
1009.33 1009.21 1009.04 1009.07 1009.05 1009.14 1009.51 1009.79 1009.99 1010.06 1010.07 1009.99 1009.95 1009.63 1009.64 1009.68 1009.95 1010.14 1010.13 1010.11 1009.95 1009.85 1009.73 1009.60 1009.48 1009.31 1009.27 1009.34 1009.20 1009.07 1009.02 1009.05 1009.09 1009.44 1009.68 1009.90 1010.00 1010.13 1010.35 1010.49 1010.62 1010.82 1011.10 1011.30
Wind_Speed
8 11 7 1 6 9 8 11 3 6 2 3 1 7 5 15 16 16 13 18 7 3 7 10 8 9 11 10 8 11 11 11 11 10 9 8 7 8 9 8 7 7 7 5
4 10 7 12 11 11 16 10 6 6 10 15 4 5 7 4 6 5 5 13 9 10 16 12 7 11 9 10 11 12 12 12 10 9 8 8 7 8 9 7 6 6 7 6
6 7 8 8 9 16 13 11 1 7 6 8 16 11 6 8 10 6 14 10 6 15 13 26 11 10 14 9 9 11 11 11 11 12 11 10 9 8 9 9 7 6 6 5
4 5 5 4 2 17 16 9 10 9 10 10 7 8 10 5 10 15 19 8 3 7 10 2 6 9 8 2 7 12 12 10 9 8 3 4 9 15 11 6 9 7 7 7
4 2 2 3 5 3 5 1 3 9 16 14 17 7 7 15 7 12 11 7 1 1 7 6 6 2 4 5 6 4 6 8 9 10 15 12 15 11 15 20 7 6 5 7
3 4 4 2 6 3 4 1 4 2 11 13 9 11 5 11 9 10 12 11 10 9 9 9 6 4 5 6 6 6 5 6 12 14 11 11 10 16 3 13 15 10 7 8
5 1 4 6 5 4 5 6 3 5 2 7 5 11 8 3 7 10 9 10 9 8 8 11 12 11 8 5 5 2 3 3 7 8 13 12 16 13 17 12 13 16 10 8
3 6 6 17 2 2 3 3 4 2 1 0 5 7 6 11 13 18 18 18 15 12 12 11 12 11 9 7 3 3 3 3 4 6 5 7 14 21 15 8 12 13 10 8
3 3 4 7 2 2 5 2 1 3 4 5 4 1 3 6 11 13 14 11 10 9 9 11 12 9 10 9 6 1 2 3 4 4 6 6 9 10 8 3 6 7 9 6
3 3 2 9 10 9 7 2 2 6 8 7 6 6 4 6 6 6 4 5 5 5 8 9 8 9 9 10 7 3 2 3 4 4 4 4 3 2 3 4 5 7 6 6
3 7 5 9 7 4 5 2 8 6 3 5 5 5 5 5 6 5 3 4 6 8 10 13 12 12 13 14 13 6 3 2 3 2 3 4 3 2 3 4 7 10 10 7
5 12 8 9 9 10 3 3 6 6 3 2 5 4 5 5 3 2 2 5 6 7 8 10 10 13 13 13 12 12 5 3 3 3 2 1 3 2 11 10 9 6 9 8
3 5 4 4 7 4 5 4 7 7 6 8 3 5 5 5 3 4 1 3 6 6 6 7 7 7 9 9 8 9 8 7 4 3 2 2 3 3 3 5 14 17 16 9
2 6 4 5 3 6 3 5 8 6 4 5 7 5 5 4 5 5 5 1 3 4 6 6 7 7 7 7 5 6 6 8 5 4 4 3 2 4 4 3 2 4 15 12
4 5 5 4 5 6 8 7 9 5 2 5 3 6 6 6 5 5 3 3 1 1 4 5 6 7 7 6 5 4 3 4 5 3 3 3 3 5 8 8 6 5 5 7
4 6 3 10 8 7 9 8 8 4 6 6 7 6 5 6 5 5 6 5 5 2 3 3 5 6 7 6 7 5 3 4 5 4 3 3 4 5 7 8 7 8 4 3
4 5 3 5 6 5 8 6 6 6 5 6 5 4 3 4 1 4 5 5 4 4 5 3 3 7 6 5 5 4 4 4 6 3 2 3 2 3 6 6 8 7 6 4
3 4 10 10 9 8 7 7 6 6 4 4 4 2 2 2 2 3 4 4 6 2 4 5 4 4 5 6 5 4 4 4 4 5 3 3 3 1 2 5 6 7 7 5
7 8 8 8 6 7 6 4 3 4 6 5 4 3 1 3 4 3 2 1 2 0 4 6 8 5 4 8 6 4 4 4 4 2 1 2 1 0 3 3 5 8 9 6
13 13 12 8 6 5 6 4 6 4 5 5 4 5 6 4 4 2 1 1 3 4 4 5 5 4 4 7 8 4 5 5 3 4 5 4 5 6 4 7 8 9 8 7
11 8 7 6 4 3 3 2 2 4 4 5 6 6 5 3 2 1 3 2 4 5 5 6 2 3 3 5 5 5 5 5 4 5 5 4 6 7 7 9 8 9 9 7
6 6 6 6 6 5 1 3 3 3 4 3 4 5 5 4 2 2 3 4 4 7 3 1 1 4 5 8 4 4 4 5 4 4 5 5 4 6 7 7 8 6 6 7
5 5 5 6 6 5 3 2 4 1 3 3 4 4 4 2 1 0 3 4 2 4 3 1 3 5 7 5 5 4 5 4 4 4 4 4 4 5 5 6 5 6 5 5
4 3 3 3 4 3 3 3 5 5 5 4 4 4 3 1 4 3 3 3 3 2 1 3 4 7 7 4 4 4 2 2 2 3 4 5 4 5 5 5 5 5 5 6
3 2 1 2 2 4 5 5 5 5 5 5 4 4 5 4 4 4 3 4 7 2 2 6 8 9 4 3 2 2 1 2 4 3 2 4 5 5 5 5 5 5 5 5
1 3 3 5 5 5 4 4 4 3 3 4 3 4 4 3 2 4 4 5 4 4 3 4 4 2 2 1 3 4 3 4 5 4 5 5 5 5 5 5 5 5 6 6
4 4 1 1 2 3 3 5 5 5 5 4 5 4 5 4 5 5 6 5 5 5 5 5 5 4 2 2 1 2 4 4 6 6 5 5 5 5 6 6 6 5 5 5
Wind_Direction
259 270 243 69 39 20 63 9 152 298 186 77 137 140 119 134 135 140 157 191 144 355 253 228 192 183 186 187 162 182 183 183 193 195 194 199 178 174 180 185 195 194 194 208
284 301 64 59 26 77 59 13 343 33 61 355 100 77 64 59 139 122 45 7 55 42 5 333 16 316 192 170 180 189 186 195 187 186 188 196 187 182 182 186 202 199 195 180
264 292 266 32 353 89 79 48 164 62 336 339 43 1 83 95 87 54 56 26 53 106 206 278 315 330 284 175 181 201 193 203 194 192 185 195 188 197 186 181 172 209 217 177
250 0 42 227 339 113 110 63 69 79 31 42 8 337 322 35 101 84 75 66 143 142 187 71 4 329 280 261 252 206 200 197 197 190 230 349 26 13 277 189 181 178 197 208
136 56 124 235 229 321 358 283 317 107 68 28 18 344 229 10 20 109 94 61 338 212 153 189 207 279 2 36 282 268 233 212 173 89 104 93 348 355 10 338 290 185 182 192
133 118 199 9 337 353 289 264 222 272 107 123 54 1 283 337 331 45 69 52 25 13 13 24 16 355 59 26 15 37 331 231 124 136 146 125 212 280 320 301 295 254 194 197
4 53 109 19 302 327 75 258 252 299 137 120 116 172 221 252 350 34 59 61 40 9 19 7 360 1 16 78 22 326 213 191 137 173 192 197 185 201 205 188 233 246 190 186
318 42 2 345 55 298 228 102 187 269 324 176 69 283 318 43 29 27 21 11 6 12 14 7 4 2 337 344 313 245 227 183 178 183 191 208 189 197 215 215 194 197 180 187
72 173 250 287 53 26 7 355 350 108 126 116 139 172 35 36 51 37 20 360 356 4 4 7 3 353 342 336 321 15 225 196 207 242 230 227 214 207 232 159 235 204 176 170
132 46 25 353 350 4 37 337 41 61 85 100 128 111 107 83 84 77 43 335 331 357 18 16 5 354 345 329 321 38 274 316 324 330 306 331 309 287 182 174 197 261 168 166
92 114 62 10 298 294 266 182 64 54 104 115 97 83 83 59 65 70 31 344 1 5 11 9 357 358 355 347 345 322 317 261 236 218 282 183 182 243 248 237 202 173 205 167
211 185 145 207 230 229 279 204 142 136 137 128 120 113 96 88 133 102 23 12 10 8 8 7 355 8 357 353 352 349 347 340 276 298 309 302 148 90 45 26 360 263 161 157
199 171 185 256 223 242 246 223 196 161 181 153 153 151 165 151 130 87 83 28 22 1 343 337 348 353 343 343 341 358 356 339 342 12 51 3 139 152 140 39 59 54 49 44
183 135 226 220 251 252 250 65 94 78 123 162 149 156 139 129 111 111 90 83 55 17 346 343 335 333 319 300 341 14 346 350 8 358 8 35 60 128 105 62 26 66 39 66
264 248 295 141 154 86 79 77 56 39 17 47 46 123 120 129 140 147 163 180 178 334 319 321 328 316 315 326 345 20 14 339 326 353 9 35 81 111 108 94 84 91 88 39
324 196 156 117 108 102 97 81 91 73 71 75 83 104 138 154 169 196 203 175 168 223 256 283 309 300 317 351 348 325 332 346 328 331 351 38 41 90 102 102 109 91 83 115
204 136 117 107 128 113 102 113 125 128 132 123 133 102 34 24 338 278 261 227 198 200 232 229 296 317 316 334 347 314 296 267 247 229 313 8 17 97 96 102 124 136 120 97
167 140 173 150 154 137 146 137 137 155 163 181 166 122 99 70 326 106 60 83 89 44 313 312 318 300 314 326 333 318 313 327 264 237 231 190 183 142 81 115 125 125 131 131
71 94 104 97 94 88 83 104 203 195 183 201 211 196 184 78 99 87 43 83 110 239 292 312 324 351 340 328 359 335 333 342 354 352 84 78 34 140 132 124 133 127 131 130
77 80 86 85 96 122 144 193 151 80 256 217 207 144 141 132 136 184 108 297 218 231 276 298 325 322 5 350 356 346 344 349 19 49 47 57 89 88 75 83 96 109 120 117
106 112 122 126 124 129 139 206 68 1 306 141 156 155 156 173 201 85 37 347 279 279 286 296 279 344 24 350 358 342 346 360 47 60 59 66 84 84 93 97 91 100 101 94
106 118 134 153 153 156 259 298 265 29 53 130 127 151 167 220 231 308 235 208 278 295 334 359 355 17 347 7 355 343 357 24 55 70 77 69 72 94 94 90 100 96 95 118
125 132 154 164 188 211 255 268 190 127 310 195 187 191 208 231 204 324 301 267 287 322 304 288 270 339 349 353 336 353 352 35 58 65 67 62 72 86 89 95 95 101 105 103
138 142 180 160 151 162 235 255 213 222 227 231 217 197 171 345 325 243 243 272 262 27 339 247 270 296 308 302 281 288 261 291 72 76 59 66 85 88 96 114 112 110 115 113
162 171 240 195 115 200 204 201 194 204 203 238 256 270 247 222 184 220 205 241 263 268 295 288 280 296 309 315 115 137 27 200 184 165 137 133 134 132 123 127 134 141 139 143
212 262 228 190 202 199 189 181 225 242 214 228 252 248 262 262 206 177 215 241 251 279 278 286 285 300 4 275 139 109 101 87 115 132 143 138 141 138 143 154 158 165 170 170
328 326 327 51 231 188 162 190 192 227 221 220 224 236 227 194 209 202 213 229 236 251 262 270 282 286 273 269 197 190 173 144 132 149 169 166 170 164 173 176 173 174 176 175